Location: Unspecified
(0.0000°N, 0.0000°E)
Time: 21:24:10
(UTC+00:00)

S-56A Canister/Altair - Pass Details

Date: 25 April 2019
Orbit: 633 x 2499 km, 38.9° (Epoch: 24 May)

Event Time Altitude Azimuth Distance (km) Brightness Sun altitude
Exits shadow 04:59:48 - 211° (SSW) 4,359 11.0 -14.2°
Reaches altitude 10° 05:02:02 10° 206° (SSW) 3,783 10.7 -13.6°
Maximum altitude 05:11:52 46° 135° (SE) 2,577 10.4 -11.3°
Drops below altitude 10° 05:25:07 10° 68° (ENE) 5,059 13.3 -8.0°
Sets 05:29:33 0° 62° (ENE) 6,150 14.0 -6.9°
